[[{"header":{"parameterUnit":"m.s-1","parameterCategory":1,"la1":30.2991,"la2":30.254,"lo1":-89.0895,"lo2":-89.0444,"dy":0.0017,"dx":0.0017,"nx":28,"ny":28,"refTime":"2023-10-08T21:00:00:Z","depth":0,"parameterNumber":2,"parameterNumberName":"U-component_of_WINDS"},"data":[0,0,0,0,0,0,0,0,0,0,0,0,0,0,0,0,0,0,0,0,0,0,0,0,0,0,0,0,0,0,0,0,0,0,0,0,0,0,0,0,0,0,0,0,0,0,0,0,0,0,0,0,0,0,0,0,0,0,1.3746,1.3747,0,1.3814,1.3815,1.3815,1.3821,1.382,1.382,1.3819,1.3886,1.3889,1.3891,0,0,0,0,0,0,0,0,0,0,0,0,0,1.3618,1.362,1.3746,1.3747,1.3748,1.3814,1.3815,1.3816,1.3821,1.382,1.382,1.3819,1.3886,1.3888,1.3891,0,0,0,0,0,0,0,0,0,0,0,0,0,1.3678,1.3621,1.3746,1.3759,1.376,1.3814,1.3815,1.3816,1.3821,1.382,1.3819,1.3818,1.3885,1.3888,1.3892,1.3936,0,0,1.3903,1.3905,0,0,0,0,0,0,0,0,1.3675,1.3683,1.3756,1.3758,1.376,1.3808,1.3794,1.3856,1.3822,1.3798,1.3819,1.3818,1.3861,1.3867,1.3882,1.3939,1.3942,1.3903,1.3906,1.3907,1.3908,0,0,0,0,0,0,0,1.3671,1.368,1.3773,1.3757,1.3759,1.376,1.3767,1.3806,1.3835,1.38,1.3801,1.3809,1.3862,1.3878,1.3883,1.3943,1.3903,1.3907,1.3909,1.391,1.4037,1.4038,0,0,0,0,0,0,1.3665,1.3677,1.3771,1.3775,1.3714,1.3763,1.3771,1.3794,1.3834,1.384,1.381,1.3809,1.3872,1.3879,1.3886,1.3938,1.3907,1.3911,1.3913,1.4036,1.4038,1.4039,0,0,0,0,0,0,1.3662,1.3673,1.3768,1.3726,1.3738,1.3766,1.3791,1.3796,1.3812,1.3842,1.3846,1.3821,1.3872,1.388,1.3923,1.394,1.3912,1.3916,1.4035,1.4037,1.4038,1.4044,0,0,0,0,0,0,1.3658,1.3672,1.369,1.3726,1.374,1.3805,1.3793,1.3798,1.3818,1.3818,1.3854,1.3858,1.3872,1.3917,1.3927,1.3945,1.3919,1.4033,1.4036,1.4038,1.4043,1.4046,1.4049,0,0,0,0,0,1.3654,1.369,1.3691,1.3702,1.3764,1.3806,1.3814,1.3829,1.382,1.3837,1.3856,1.3857,1.3937,1.3922,1.3932,1.3952,1.4032,1.4035,1.4037,1.4041,1.4045,1.4049,0,0,0,0,0,0,1.3655,1.3695,1.3697,1.3746,1.3773,1.3807,1.383,1.3834,1.3863,1.3862,1.3878,1.3886,1.3927,1.3944,1.3926,1.3995,1.3984,1.3988,1.3983,1.3987,1.399,1.3984,1.3922,0,0,0,0,0,1.3661,1.3693,1.3726,1.3766,1.3779,1.3802,1.3821,1.383,1.3859,1.387,1.3892,1.3918,1.3949,1.3969,1.4,1.4045,1.4052,1.4064,1.4067,1.4069,1.4073,1.4095,1.41,1.4047,1.4047,1.4047,0,0,1.3673,1.3699,1.3719,1.3766,1.3788,1.3819,1.3812,1.3846,1.3869,1.3875,1.3916,1.3933,1.3963,1.4007,1.4027,1.4022,1.4089,1.4072,1.4074,1.4076,1.4098,1.4103,1.4108,1.4049,1.4049,1.4049,0,0,1.3712,1.3736,1.377,1.3792,1.3825,1.384,1.3848,1.3882,1.3893,1.3935,1.3939,1.3966,1.4019,1.404,1.4058,1.4101,1.4102,1.411,1.4126,1.4148,1.4152,1.4156,1.4169,1.4174,1.4114,1.4114,1.4114,0,1.3723,1.3772,1.3787,1.3821,1.384,1.3847,1.3881,1.3901,1.3942,1.3955,1.3949,1.4014,1.4035,1.4082,1.4093,1.4108,1.4116,1.4106,1.415,1.4154,1.4158,1.4171,1.4176,1.4115,1.4115,1.4115,1.4115,0,1.3782,1.3816,1.3839,1.3878,1.3901,1.3934,1.3953,1.3974,1.398,1.3995,1.4036,1.4061,1.4095,1.4108,1.4115,1.4155,1.415,1.4147,1.4136,1.4163,1.4175,1.4181,1.4116,1.4115,1.4115,1.4115,0,0,1.3824,1.387,1.3878,1.3894,1.393,1.3956,1.3988,1.4022,1.4038,1.4066,1.4092,1.4136,1.4132,1.4152,1.4161,1.4181,1.421,1.4175,1.4176,1.4179,1.4253,1.4254,1.4259,1.4212,1.4213,1.4213,1.425,0,1.3865,1.3924,1.3938,1.3987,1.4016,1.4022,1.405,1.4074,1.4089,1.4114,1.413,1.416,1.4155,1.4166,1.4186,1.4202,1.4225,1.42,1.4234,1.4235,1.4225,1.4266,1.4268,1.4301,1.4255,1.4256,1.4256,0,1.3921,1.3948,1.4001,1.403,1.4043,1.4068,1.4098,1.4124,1.415,1.4159,1.418,1.4187,1.4219,1.4206,1.425,1.4232,1.4247,1.4257,1.4259,1.4261,1.4246,1.4268,1.4312,1.4316,1.4264,1.4264,1.4263,0,1.3942,1.3993,1.4031,1.4045,1.4081,1.4098,1.4113,1.4139,1.4157,1.4184,1.4195,1.4225,1.4241,1.4263,1.4277,1.4267,1.4318,1.4307,1.4324,1.4324,1.4334,1.4333,1.4379,1.4346,1.4346,1.4346,1.4346,0,1.3985,1.4017,1.4041,1.4063,1.4098,1.4113,1.4146,1.4161,1.4184,1.4208,1.4215,1.4238,1.4256,1.428,1.4291,1.4324,1.4331,1.4338,1.434,1.4337,1.4335,1.4345,1.4343,1.4347,1.4347,1.4347,1.4347,0,1.4015,1.4033,1.4074,1.4104,1.4112,1.4136,1.4161,1.4182,1.4196,1.4227,1.4235,1.4257,1.4286,1.4302,1.4339,1.4346,1.4382,1.4384,1.4373,1.4373,1.4389,1.4386,1.4442,1.4449,1.4413,1.4413,1.4414,0,1.4041,1.4065,1.4097,1.4114,1.413,1.4158,1.4176,1.4191,1.421,1.424,1.4257,1.4287,1.4311,1.4357,1.4375,1.4403,1.4404,1.4422,1.4408,1.4403,1.4402,1.44,1.4401,1.4424,1.4424,1.4424,1.4424,0,1.4083,1.409,1.4117,1.4146,1.4167,1.4191,1.4214,1.4227,1.4246,1.4266,1.4296,1.4315,1.4351,1.438,1.4408,1.4423,1.4426,1.4429,1.4434,1.4429,1.4421,1.4424,1.4377,1.4427,1.4427,1.4427,1.4426,1.4426,1.411,1.4131,1.4156,1.4185,1.4203,1.4224,1.4245,1.4261,1.4286,1.4318,1.4325,1.4355,1.4379,1.4418,1.4433,1.4456,1.4453,1.4461,1.4463,1.4464,1.4463,1.4418,1.4462,1.4462,1.4462,1.4462,1.4462,0,1.4151,1.4167,1.4193,1.4225,1.4247,1.4248,1.4273,1.4291,1.4318,1.434,1.4364,1.4396,1.4424,1.4444,1.4471,1.4485,1.4487,1.4492,1.449,1.4493,1.4466,1.4458,1.449,1.449,1.449,1.449,1.449,1.449,1.4175,1.4208,1.4218,1.426,1.4276,1.4307,1.432,1.4339,1.4356,1.4393,1.4415,1.4428,1.4449,1.4477,1.4501,1.4507,1.4515,1.4519,1.4524,1.4498,1.4495,1.4492,1.4485,1.4522,1.4522,1.4549,1.455,1.455]},{"header":{"parameterUnit":"m.s-1","parameterCategory":1,"la1":30.2991,"la2":30.254,"lo1":-89.0895,"lo2":-89.0444,"dy":0.0017,"dx":0.0017,"nx":28,"ny":28,"refTime":"2023-10-08T21:00:00:Z","depth":0,"parameterNumber":3,"parameterNumberName":"V-component_of_WINDS"},"data":[0,0,0,0,0,0,0,0,0,0,0,0,0,0,0,0,0,0,0,0,0,0,0,0,0,0,0,0,0,0,0,0,0,0,0,0,0,0,0,0,0,0,0,0,0,0,0,0,0,0,0,0,0,0,0,0,0,0,2.9854,2.9853,0,2.9779,2.9778,2.9777,2.9688,2.9687,2.9686,2.9684,2.9608,2.9607,2.9606,0,0,0,0,0,0,0,0,0,0,0,0,0,2.9921,2.992,2.9854,2.9853,2.9852,2.9779,2.9778,2.9777,2.9689,2.9687,2.9685,2.9684,2.9608,2.9607,2.9606,0,0,0,0,0,0,0,0,0,0,0,0,0,2.9873,2.992,2.9854,2.9799,2.9794,2.9779,2.9778,2.9776,2.9689,2.9687,2.9685,2.9683,2.9608,2.9607,2.9606,2.9639,0,0,2.9603,2.9602,0,0,0,0,0,0,0,0,2.9876,2.9871,2.9808,2.9803,2.9797,2.9741,2.9773,2.973,2.9689,2.9729,2.9684,2.9682,2.9654,2.9649,2.9639,2.9636,2.9632,2.9602,2.9602,2.9601,2.9601,0,0,0,0,0,0,0,2.9879,2.9874,2.9824,2.9808,2.98,2.9778,2.9769,2.9765,2.9704,2.9725,2.9719,2.9711,2.965,2.964,2.9637,2.9631,2.9602,2.9601,2.9601,2.96,2.9647,2.9649,0,0,0,0,0,0,2.9891,2.9877,2.9827,2.9822,2.9832,2.9779,2.9769,2.9761,2.9703,2.9693,2.9713,2.9707,2.9643,2.9638,2.9634,2.9665,2.9601,2.96,2.9599,2.9645,2.9648,2.965,0,0,0,0,0,0,2.9893,2.9887,2.983,2.9848,2.9838,2.978,2.9772,2.976,2.975,2.9694,2.9683,2.9714,2.9642,2.9635,2.9638,2.9662,2.96,2.9599,2.9643,2.9646,2.9649,2.9732,0,0,0,0,0,0,2.9895,2.9889,2.9901,2.9849,2.9838,2.9836,2.9773,2.976,2.9749,2.974,2.9692,2.9682,2.964,2.964,2.9636,2.9659,2.9598,2.9641,2.9644,2.9648,2.9726,2.9737,2.9746,0,0,0,0,0,2.9898,2.9928,2.9902,2.9897,2.9852,2.9837,2.9831,2.9781,2.9751,2.9762,2.9725,2.9684,2.966,2.9641,2.9636,2.9659,2.9639,2.9643,2.9648,2.9722,2.9735,2.9746,0,0,0,0,0,0,2.9986,2.992,2.9891,2.9905,2.9877,2.9822,2.9835,2.9797,2.9778,2.9771,2.971,2.97,2.9709,2.9684,2.9664,2.9686,2.9643,2.9647,2.9701,2.9713,2.9723,2.9727,2.9597,0,0,0,0,0,3.0007,3.0,2.9944,2.9962,2.9949,2.9895,2.9887,2.9851,2.9819,2.9807,2.9771,2.9742,2.9727,2.9719,2.9703,2.9723,2.9709,2.9736,2.9746,2.9754,2.9758,2.9762,2.9773,2.9664,2.9664,2.9664,0,0,3.005,3.0014,3.0014,2.9979,2.9953,2.9946,2.9886,2.9882,2.9876,2.9807,2.9805,2.9778,2.9741,2.9752,2.9755,2.9732,2.9785,2.976,2.9767,2.9765,2.9768,2.9778,2.9787,2.9667,2.9667,2.9666,0,0,3.0125,3.0099,3.0109,3.0084,3.0045,3.0008,3.0011,2.9961,2.994,2.9938,2.9884,2.9877,2.9854,2.9829,2.9814,2.9878,2.9837,2.9874,2.9925,2.993,2.9939,2.9946,2.9965,2.9974,2.9878,2.9878,2.9878,0,3.0184,3.0172,3.0119,3.0118,3.0103,3.0039,3.0048,3.0027,2.9985,2.9976,2.9951,2.9919,2.989,2.9892,2.9907,2.9898,2.9897,2.9879,2.9942,2.9949,2.9955,2.9972,2.998,2.9883,2.9882,2.9882,2.9881,0,3.0245,3.0238,3.0251,3.0211,3.0197,3.0202,3.0148,3.0141,3.0106,3.0072,3.0069,3.0032,3.0006,3.0004,2.9971,3.0001,2.9987,2.9953,2.9908,2.997,2.9986,2.9992,2.9889,2.9888,2.9886,2.9885,0,0,3.0373,3.0302,3.0308,3.0287,3.0239,3.0232,3.0233,3.0206,3.02,3.0174,3.0171,3.0152,3.0119,3.0102,3.0065,3.007,3.0119,3.0035,3.0033,3.0049,3.0145,3.0169,3.0178,3.0092,3.0093,3.0094,3.0147,0,3.0437,3.0433,3.0385,3.0395,3.0385,3.0324,3.0324,3.0294,3.0262,3.0249,3.0213,3.02,3.0159,3.0148,3.015,3.0112,3.0137,3.0108,3.0087,3.0087,3.0095,3.0186,3.0212,3.0263,3.0153,3.0154,3.0155,0,3.0511,3.0487,3.0496,3.0445,3.0439,3.044,3.041,3.04,3.0364,3.0339,3.0319,3.0277,3.0272,3.0231,3.0223,3.0204,3.0193,3.0173,3.0173,3.0167,3.0123,3.018,3.0279,3.0286,3.0165,3.0164,3.0163,0,3.0599,3.057,3.057,3.0555,3.0497,3.0498,3.0474,3.0436,3.0422,3.0397,3.0386,3.0361,3.0347,3.0327,3.0278,3.0254,3.0274,3.023,3.0252,3.0253,3.0257,3.0257,3.0353,3.0255,3.0255,3.0254,3.0254,0,3.0674,3.0681,3.0608,3.0608,3.0614,3.0558,3.0564,3.0534,3.05,3.0492,3.0439,3.0432,3.0369,3.0355,3.0317,3.0314,3.0309,3.0287,3.0276,3.029,3.0293,3.028,3.0274,3.0256,3.0256,3.0256,3.0255,0,3.0772,3.0724,3.072,3.0665,3.0651,3.0657,3.0609,3.0606,3.057,3.0561,3.0555,3.0499,3.0479,3.0429,3.0397,3.0371,3.0377,3.0359,3.0389,3.0381,3.0404,3.0402,3.0493,3.0501,3.0401,3.0402,3.0403,0,3.0822,3.0825,3.077,3.0761,3.0738,3.0725,3.071,3.0655,3.0641,3.0599,3.0601,3.0577,3.0554,3.0526,3.0481,3.0455,3.0434,3.0468,3.043,3.0443,3.0431,3.043,3.0429,3.0476,3.0477,3.0478,3.0479,0,3.0913,3.0889,3.087,3.0843,3.0826,3.0802,3.0775,3.077,3.0708,3.0695,3.0674,3.0657,3.0623,3.0599,3.0566,3.0539,3.0498,3.0492,3.0495,3.0508,3.0523,3.0512,3.0408,3.049,3.0489,3.0488,3.0487,3.0487,3.0986,3.0986,3.0946,3.0926,3.0899,3.0875,3.0868,3.0831,3.0813,3.078,3.0749,3.073,3.0691,3.0643,3.0619,3.0602,3.0581,3.0587,3.0587,3.0589,3.0594,3.0528,3.0597,3.0596,3.0596,3.0596,3.0595,0,3.1072,3.1044,3.1026,3.0989,3.0972,3.0936,3.0903,3.0892,3.0876,3.0844,3.0822,3.0797,3.0772,3.0726,3.0697,3.0692,3.0672,3.0686,3.0685,3.0678,3.0616,3.0615,3.0703,3.0703,3.0703,3.0703,3.0703,3.0702,3.1115,3.1111,3.1082,3.1063,3.1034,3.1015,3.0999,3.0975,3.0948,3.0922,3.0902,3.0871,3.0832,3.08,3.0775,3.0761,3.0752,3.0771,3.0752,3.0694,3.0683,3.0674,3.0672,3.0771,3.0771,3.0815,3.0816,3.0816]}]]